| time (UTC) | temp C | wind direction | speed KPH | gust KPH | rain 1hr cm | rain 24hr cm | rain mn cm | humidity % | barometer mb |
| 20260506023934 | 19 | 0 | 3.2 | 8.0 | 0.00 | 1.02 | 0.46 | 36 | 1013.6 |
| 20260506023437 | 19 | 0 | 3.2 | 12.9 | 0.00 | 1.02 | 0.46 | 35 | 1013.4 |
| 20260506022433 | 20 | 0 | 4.8 | 14.5 | 0.00 | 1.04 | 0.46 | 34 | 1013.3 |
| 20260506021934 | 20 | 0 | 4.8 | 14.5 | 0.00 | 1.07 | 0.46 | 33 | 1013.1 |
| 20260506021435 | 20 | 0 | 4.8 | 14.5 | 0.00 | 1.07 | 0.46 | 33 | 1013.0 |
| 20260506020934 | 20 | 0 | 4.8 | 14.5 | 0.00 | 1.09 | 0.46 | 34 | 1012.8 |
| 20260506020434 | 20 | 0 | 3.2 | 12.9 | 0.00 | 1.12 | 0.46 | 33 | 1012.7 |
| 20260506015932 | 20 | 35 | 3.2 | 12.9 | 0.00 | 1.14 | 0.46 | 33 | 1012.7 |
| 20260506014436 | 20 | 0 | 6.4 | 14.5 | 0.00 | 1.19 | 0.46 | 34 | 1012.6 |
| 20260506013931 | 20 | 298 | 6.4 | 14.5 | 0.00 | 1.22 | 0.46 | 34 | 1012.6 |
| 20260506013432 | 21 | 320 | 6.4 | 17.7 | 0.00 | 1.22 | 0.46 | 34 | 1012.5 |
| 20260506012931 | 21 | 277 | 8.0 | 20.9 | 0.00 | 1.22 | 0.46 | 34 | 1012.5 |
| 20260506012432 | 21 | 355 | 8.0 | 20.9 | 0.00 | 1.22 | 0.46 | 34 | 1012.5 |
| 20260506011937 | 21 | 0 | 6.4 | 19.3 | 0.00 | 1.22 | 0.46 | 34 | 1012.4 |
| 20260506010934 | 21 | 26 | 4.8 | 16.1 | 0.00 | 1.24 | 0.46 | 33 | 1012.5 |
| 20260506010434 | 22 | 295 | 8.0 | 29.0 | 0.00 | 1.24 | 0.46 | 32 | 1012.2 |
| 20260506005932 | 22 | 330 | 8.0 | 29.0 | 0.00 | 1.24 | 0.46 | 32 | 1012.1 |
| 20260506005434 | 22 | 9 | 4.8 | 22.5 | 0.00 | 1.24 | 0.46 | 31 | 1012.1 |
| 20260506004433 | 22 | 344 | 4.8 | 16.1 | 0.00 | 1.27 | 0.46 | 29 | 1012.1 |
| 20260506003932 | 23 | 227 | 4.8 | 17.7 | 0.00 | 1.27 | 0.46 | 29 | 1012.0 |
| 20260506003437 | 23 | 336 | 3.2 | 17.7 | 0.00 | 1.27 | 0.46 | 29 | 1012.0 |
| 20260506002935 | 23 | 267 | 4.8 | 19.3 | 0.00 | 1.30 | 0.46 | 29 | 1011.8 |
| 20260506002434 | 23 | 243 | 4.8 | 19.3 | 0.00 | 1.30 | 0.46 | 28 | 1011.9 |
| 20260506001432 | 23 | 263 | 3.2 | 14.5 | 0.00 | 1.30 | 0.46 | 29 | 1011.8 |
| 20260506000934 | 23 | 243 | 3.2 | 19.3 | 0.00 | 1.30 | 0.46 | 29 | 1011.8 |
| 20260506000434 | 24 | 0 | 3.2 | 19.3 | 0.00 | 1.30 | 0.46 | 28 | 1011.8 |
| 20260505235432 | 24 | 0 | 3.2 | 11.3 | 0.00 | 1.30 | 0.46 | 28 | 1011.7 |
| 20260505234934 | 24 | 59 | 4.8 | 12.9 | 0.00 | 1.30 | 0.46 | 27 | 1011.6 |
| 20260505234430 | 24 | 0 | 3.2 | 16.1 | 0.00 | 1.30 | 0.46 | 25 | 1011.6 |
| 20260505233924 | 24 | 0 | 3.2 | 16.1 | 0.00 | 1.30 | 0.46 | 27 | 1011.6 |
| 20260505233425 | 25 | 328 | 3.2 | 14.5 | 0.00 | 1.30 | 0.46 | 28 | 1011.6 |
| 20260505232924 | 25 | 324 | 4.8 | 17.7 | 0.00 | 1.30 | 0.46 | 29 | 1011.6 |
| 20260505231924 | 23 | 257 | 4.8 | 14.5 | 0.00 | 1.30 | 0.46 | 31 | 1011.6 |
| 20260505231420 | 23 | 259 | 6.4 | 19.3 | 0.00 | 1.30 | 0.46 | 31 | 1011.7 |
| 20260505230920 | 23 | 208 | 4.8 | 19.3 | 0.00 | 1.30 | 0.46 | 32 | 1011.7 |
| 20260505230420 | 22 | 244 | 4.8 | 14.5 | 0.00 | 1.30 | 0.46 | 31 | 1011.7 |
| 20260505225919 | 23 | 254 | 4.8 | 14.5 | 0.00 | 1.30 | 0.46 | 31 | 1011.9 |
| 20260505225419 | 24 | 242 | 4.8 | 14.5 | 0.00 | 1.30 | 0.46 | 30 | 1011.9 |
| 20260505224922 | 23 | 296 | 4.8 | 14.5 | 0.00 | 1.30 | 0.46 | 30 | 1011.9 |
| 20260505224422 | 23 | 350 | 4.8 | 14.5 | 0.00 | 1.30 | 0.46 | 30 | 1011.9 |
| 20260505223922 | 24 | 254 | 4.8 | 16.1 | 0.00 | 1.30 | 0.46 | 30 | 1011.9 |
| 20260505223420 | 23 | 350 | 4.8 | 16.1 | 0.00 | 1.30 | 0.46 | 31 | 1011.9 |
| 20260505222920 | 23 | 314 | 4.8 | 14.5 | 0.00 | 1.30 | 0.46 | 30 | 1012.1 |
| 20260505222418 | 24 | 309 | 4.8 | 17.7 | 0.00 | 1.30 | 0.46 | 29 | 1012.1 |
| 20260505221926 | 24 | 249 | 4.8 | 19.3 | 0.00 | 1.30 | 0.46 | 29 | 1012.1 |
| 20260505220924 | 24 | 263 | 4.8 | 20.9 | 0.00 | 1.30 | 0.46 | 31 | 1012.2 |
| 20260505220423 | 24 | 259 | 4.8 | 20.9 | 0.00 | 1.30 | 0.46 | 32 | 1012.3 |
| 20260505215421 | 23 | 211 | 4.8 | 17.7 | 0.00 | 1.30 | 0.46 | 33 | 1012.5 |
| 20260505214914 | 25 | 212 | 4.8 | 12.9 | 0.00 | 1.30 | 0.46 | 32 | 1012.5 |
| 20260505214416 | 24 | 254 | 4.8 | 16.1 | 0.00 | 1.30 | 0.46 | 32 | 1012.5 |
| 20260505213913 | 24 | 237 | 4.8 | 16.1 | 0.00 | 1.30 | 0.46 | 31 | 1012.5 |
| 20260505213416 | 24 | 290 | 4.8 | 24.1 | 0.00 | 1.30 | 0.46 | 32 | 1012.5 |
| 20260505212913 | 24 | 285 | 4.8 | 24.1 | 0.00 | 1.30 | 0.46 | 31 | 1012.5 |
| 20260505212413 | 24 | 223 | 4.8 | 14.5 | 0.00 | 1.30 | 0.46 | 29 | 1012.7 |
| 20260505211416 | 24 | 265 | 6.4 | 19.3 | 0.00 | 1.30 | 0.46 | 30 | 1012.8 |
| 20260505210917 | 24 | 283 | 4.8 | 19.3 | 0.00 | 1.30 | 0.46 | 31 | 1012.8 |
| 20260505210412 | 24 | 272 | 6.4 | 17.7 | 0.00 | 1.30 | 0.46 | 33 | 1012.8 |
| 20260505205910 | 24 | 262 | 6.4 | 16.1 | 0.00 | 1.30 | 0.46 | 30 | 1012.7 |
| 20260505205410 | 24 | 317 | 4.8 | 14.5 | 0.00 | 1.30 | 0.46 | 33 | 1013.0 |
| 20260505204909 | 24 | 290 | 6.4 | 14.5 | 0.00 | 1.30 | 0.46 | 33 | 1013.1 |
| 20260505204408 | 24 | 236 | 4.8 | 19.3 | 0.00 | 1.30 | 0.46 | 36 | 1013.0 |
| 20260505203405 | 24 | 282 | 4.8 | 14.5 | 0.00 | 1.30 | 0.46 | 36 | 1013.2 |
| 20260505202905 | 24 | 282 | 4.8 | 14.5 | 0.00 | 1.30 | 0.46 | 36 | 1013.1 |
| 20260505200907 | 22 | 276 | 4.8 | 17.7 | 0.00 | 1.30 | 0.46 | 42 | 1013.3 |
| 20260505200403 | 21 | 11 | 4.8 | 17.7 | 0.00 | 1.30 | 0.46 | 44 | 1013.4 |
| 20260505195903 | 21 | 39 | 4.8 | 16.1 | 0.00 | 1.30 | 0.46 | 49 | 1013.4 |
| 20260505195357 | 21 | 355 | 3.2 | 12.9 | 0.00 | 1.30 | 0.46 | 50 | 1013.4 |
| 20260505193841 | 20 | 23 | 6.4 | 12.9 | 0.00 | 1.30 | 0.46 | 51 | 1013.5 |
| 20260505193339 | 21 | 12 | 3.2 | 9.7 | 0.00 | 1.30 | 0.46 | 52 | 1013.4 |
| 20260505192339 | 21 | 325 | 3.2 | 12.9 | 0.00 | 1.30 | 0.46 | 53 | 1013.6 |
| 20260505191839 | 21 | 32 | 1.6 | 8.0 | 0.00 | 1.30 | 0.46 | 53 | 1013.6 |
| 20260505191339 | 21 | 348 | 1.6 | 8.0 | 0.00 | 1.30 | 0.46 | 52 | 1013.6 |
| 20260505190841 | 21 | 331 | 3.2 | 8.0 | 0.00 | 1.30 | 0.46 | 51 | 1013.7 |
| 20260505190337 | 20 | 86 | 3.2 | 11.3 | 0.00 | 1.30 | 0.46 | 55 | 1013.8 |
| 20260505185837 | 20 | 347 | 3.2 | 11.3 | 0.00 | 1.30 | 0.46 | 54 | 1013.9 |
| 20260505185337 | 21 | 9 | 3.2 | 8.0 | 0.00 | 1.30 | 0.46 | 55 | 1013.9 |
| 20260505184839 | 20 | 9 | 1.6 | 8.0 | 0.00 | 1.30 | 0.46 | 55 | 1013.9 |
| 20260505184342 | 19 | 314 | 1.6 | 6.4 | 0.00 | 1.30 | 0.46 | 56 | 1014.3 |
| 20260505183840 | 19 | 220 | 3.2 | 8.0 | 0.00 | 1.30 | 0.46 | 56 | 1014.3 |
| 20260505183335 | 19 | 209 | 3.2 | 8.0 | 0.00 | 1.30 | 0.46 | 57 | 1014.3 |
| 20260505182833 | 19 | 207 | 3.2 | 6.4 | 0.00 | 1.30 | 0.46 | 59 | 1014.4 |
| 20260505181832 | 19 | 9 | 3.2 | 9.7 | 0.00 | 1.30 | 0.46 | 58 | 1014.6 |
| 20260505181333 | 19 | 323 | 3.2 | 9.7 | 0.00 | 1.30 | 0.46 | 61 | 1014.6 |
| 20260505180825 | 19 | 249 | 3.2 | 8.0 | 0.00 | 1.30 | 0.46 | 61 | 1014.6 |
| 20260505180321 | 19 | 15 | 4.8 | 8.0 | 0.00 | 1.30 | 0.46 | 59 | 1014.5 |
| 20260505175812 | 19 | 13 | 3.2 | 8.0 | 0.00 | 1.30 | 0.46 | 58 | 1014.6 |
| 20260505174305 | 19 | 284 | 3.2 | 8.0 | 0.00 | 1.30 | 0.46 | 61 | 1014.7 |
| 20260505173805 | 19 | 355 | 1.6 | 8.0 | 0.00 | 1.30 | 0.46 | 59 | 1014.7 |
| 20260505173305 | 19 | 238 | 1.6 | 8.0 | 0.00 | 1.30 | 0.46 | 57 | 1014.7 |
| 20260505172807 | 20 | 240 | 1.6 | 8.0 | 0.00 | 1.30 | 0.46 | 59 | 1014.7 |
| 20260505172306 | 20 | 155 | 1.6 | 6.4 | 0.00 | 1.30 | 0.46 | 59 | 1014.7 |
| 20260505171804 | 19 | 225 | 1.6 | 6.4 | 0.00 | 1.30 | 0.46 | 59 | 1014.8 |
| 20260505171306 | 19 | 281 | 1.6 | 8.0 | 0.00 | 1.30 | 0.46 | 61 | 1014.7 |
| 20260505170804 | 19 | 344 | 1.6 | 8.0 | 0.00 | 1.30 | 0.46 | 62 | 1014.8 |
| 20260505170305 | 18 | 307 | 1.6 | 6.4 | 0.00 | 1.30 | 0.46 | 63 | 1014.7 |
| 20260505165805 | 18 | 296 | 1.6 | 6.4 | 0.00 | 1.30 | 0.46 | 63 | 1014.6 |
| 20260505165306 | 18 | 304 | 1.6 | 6.4 | 0.00 | 1.30 | 0.46 | 64 | 1014.7 |
| 20260505164804 | 18 | 0 | 3.2 | 12.9 | 0.00 | 1.30 | 0.46 | 67 | 1014.7 |
| 20260505164304 | 18 | 0 | 3.2 | 12.9 | 0.00 | 1.30 | 0.46 | 65 | 1014.6 |
| 20260505163803 | 18 | 0 | 1.6 | 9.7 | 0.00 | 1.30 | 0.46 | 68 | 1014.6 |
| 20260505163304 | 17 | 349 | 1.6 | 6.4 | 0.00 | 1.30 | 0.46 | 71 | 1014.8 |
| 20260505162806 | 17 | 349 | 1.6 | 6.4 | 0.00 | 1.30 | 0.46 | 71 | 1014.8 |
| 20260505162300 | 17 | 57 | 1.6 | 6.4 | 0.00 | 1.30 | 0.46 | 74 | 1014.9 |
| 20260505161754 | 17 | 57 | 0.0 | 3.2 | 0.00 | 1.30 | 0.46 | 74 | 1014.9 |
| 20260505161249 | 16 | 57 | 0.0 | 1.6 | 0.00 | 1.30 | 0.46 | 75 | 1014.8 |
| 20260505160745 | 16 | 57 | 0.0 | 3.2 | 0.00 | 1.30 | 0.46 | 76 | 1014.9 |
| 20260505160236 | 17 | 57 | 0.0 | 3.2 | 0.00 | 1.30 | 0.46 | 75 | 1014.9 |
| 20260505153235 | 16 | 0 | 0.0 | 3.2 | 0.00 | 1.30 | 0.46 | 80 | 1014.6 |
| 20260505152732 | 16 | 0 | 0.0 | 1.6 | 0.00 | 1.30 | 0.46 | 78 | 1014.5 |
| 20260505152234 | 16 | 0 | 0.0 | 0.0 | 0.00 | 1.30 | 0.46 | 79 | 1014.5 |
| 20260505151732 | 16 | 0 | 0.0 | 1.6 | 0.00 | 1.30 | 0.46 | 79 | 1014.5 |
| 20260505151231 | 16 | 56 | 0.0 | 1.6 | 0.00 | 1.30 | 0.46 | 80 | 1014.5 |
| 20260505150734 | 16 | 56 | 0.0 | 1.6 | 0.00 | 1.30 | 0.46 | 82 | 1014.5 |
| 20260505150232 | 16 | 56 | 0.0 | 0.0 | 0.00 | 1.30 | 0.46 | 83 | 1014.6 |
| 20260505140231 | 15 | 56 | 0.0 | 0.0 | 0.00 | 1.30 | 0.46 | 87 | 1014.0 |
| 20260505130218 | 14 | 56 | 0.0 | 0.0 | 0.03 | 1.30 | 0.46 | 91 | 1013.7 |
| 20260505124217 | 14 | 56 | 0.0 | 0.0 | 0.03 | 1.30 | 0.46 | 91 | 1013.4 |
| 20260505123715 | 14 | 56 | 0.0 | 0.0 | 0.03 | 1.30 | 0.46 | 90 | 1013.6 |
| 20260505123213 | 14 | 56 | 0.0 | 0.0 | 0.03 | 1.30 | 0.46 | 92 | 1013.5 |
| 20260505122711 | 14 | 56 | 0.0 | 0.0 | 0.03 | 1.30 | 0.46 | 91 | 1013.3 |
| 20260505122212 | 14 | 56 | 0.0 | 0.0 | 0.03 | 1.30 | 0.46 | 90 | 1013.4 |
| 20260505121709 | 14 | 56 | 0.0 | 0.0 | 0.00 | 1.27 | 0.43 | 89 | 1013.4 |
| 20260505121206 | 13 | 56 | 0.0 | 0.0 | 0.00 | 1.27 | 0.43 | 88 | 1012.8 |
| 20260505120707 | 13 | 56 | 0.0 | 0.0 | 0.03 | 1.27 | 0.43 | 90 | 1013.1 |
| 20260505120209 | 14 | 56 | 0.0 | 1.6 | 0.03 | 1.27 | 0.43 | 90 | 1013.1 |
| 20260505115707 | 14 | 56 | 0.0 | 1.6 | 0.03 | 1.27 | 0.43 | 88 | 1013.2 |
| 20260505115207 | 14 | 56 | 0.0 | 0.0 | 0.03 | 1.27 | 0.43 | 89 | 1013.0 |
| 20260505114709 | 13 | 56 | 0.0 | 1.6 | 0.03 | 1.27 | 0.43 | 89 | 1013.0 |
| 20260505114204 | 13 | 56 | 0.0 | 3.2 | 0.03 | 1.27 | 0.43 | 89 | 1013.0 |
| 20260505113705 | 13 | 56 | 0.0 | 3.2 | 0.03 | 1.27 | 0.43 | 91 | 1013.0 |
| 20260505113205 | 14 | 56 | 0.0 | 1.6 | 0.05 | 1.27 | 0.43 | 90 | 1013.4 |
| 20260505112204 | 13 | 56 | 0.0 | 3.2 | 0.05 | 1.27 | 0.43 | 90 | 1013.3 |
| 20260505111704 | 13 | 56 | 1.6 | 4.8 | 0.05 | 1.27 | 0.43 | 90 | 1013.4 |
| 20260505111205 | 14 | 56 | 0.0 | 4.8 | 0.08 | 1.27 | 0.43 | 91 | 1013.3 |
| 20260505110704 | 14 | 28 | 0.0 | 3.2 | 0.05 | 1.24 | 0.41 | 91 | 1013.4 |
| 20260505110204 | 14 | 133 | 0.0 | 0.0 | 0.05 | 1.24 | 0.41 | 91 | 1013.6 |
| 20260505102204 | 14 | 89 | 0.0 | 4.8 | 0.10 | 1.22 | 0.38 | 91 | 1013.9 |
| 20260505101706 | 14 | 41 | 0.0 | 1.6 | 0.13 | 1.22 | 0.38 | 91 | 1014.4 |
| 20260505101207 | 14 | 41 | 0.0 | 1.6 | 0.10 | 1.19 | 0.36 | 91 | 1014.5 |
| 20260505100706 | 14 | 107 | 0.0 | 1.6 | 0.10 | 1.19 | 0.36 | 91 | 1014.6 |
| 20260505100206 | 14 | 128 | 0.0 | 1.6 | 0.13 | 1.19 | 0.36 | 91 | 1014.7 |
| 20260505095703 | 14 | 128 | 0.0 | 3.2 | 0.13 | 1.19 | 0.36 | 92 | 1014.8 |
| 20260505095209 | 14 | 128 | 0.0 | 3.2 | 0.13 | 1.19 | 0.36 | 91 | 1014.8 |
| 20260505094709 | 14 | 48 | 0.0 | 8.0 | 0.13 | 1.19 | 0.36 | 91 | 1014.9 |
| 20260505092200 | 14 | 190 | 3.2 | 12.9 | 0.08 | 1.12 | 0.28 | 91 | 1015.4 |
| 20260505091703 | 14 | 150 | 3.2 | 12.9 | 0.08 | 1.09 | 0.25 | 91 | 1015.1 |
| 20260505091159 | 14 | 153 | 3.2 | 9.7 | 0.08 | 1.09 | 0.25 | 91 | 1015.2 |
| 20260505090652 | 14 | 164 | 1.6 | 8.0 | 0.10 | 1.09 | 0.25 | 91 | 1015.2 |
| 20260505090156 | 14 | 157 | 1.6 | 8.0 | 0.08 | 1.07 | 0.23 | 91 | 1015.1 |
| 20260505085149 | 14 | 115 | 0.0 | 6.4 | 0.10 | 1.07 | 0.23 | 91 | 1015.6 |
| 20260505084649 | 14 | 311 | 0.0 | 3.2 | 0.13 | 1.07 | 0.23 | 90 | 1015.4 |
| 20260505084151 | 14 | 132 | 0.0 | 3.2 | 0.13 | 1.07 | 0.23 | 91 | 1015.8 |
| 20260505083647 | 15 | 57 | 0.0 | 3.2 | 0.13 | 1.04 | 0.20 | 91 | 1016.1 |
| 20260505083147 | 15 | 92 | 0.0 | 3.2 | 0.13 | 1.04 | 0.20 | 91 | 1016.3 |
| 20260505082642 | 15 | 92 | 0.0 | 3.2 | 0.15 | 1.04 | 0.20 | 91 | 1016.4 |
| 20260505082141 | 15 | 90 | 0.0 | 1.6 | 0.18 | 1.04 | 0.20 | 91 | 1016.4 |
| 20260505081642 | 14 | 90 | 0.0 | 3.2 | 0.15 | 1.02 | 0.18 | 91 | 1016.5 |
| 20260505080638 | 15 | 28 | 0.0 | 3.2 | 0.15 | 0.99 | 0.15 | 91 | 1016.7 |
| 20260505075634 | 15 | 28 | 0.0 | 1.6 | 0.15 | 0.97 | 0.13 | 90 | 1017.0 |
| 20260505075135 | 15 | 28 | 0.0 | 0.0 | 0.15 | 0.97 | 0.10 | 89 | 1017.1 |
| 20260505074631 | 15 | 28 | 0.0 | 0.0 | 0.15 | 0.94 | 0.10 | 91 | 1017.2 |
| 20260505073128 | 15 | 28 | 0.0 | 0.0 | 0.15 | 0.91 | 0.05 | 90 | 1017.3 |
| 20260505072622 | 15 | 28 | 0.0 | 1.6 | 0.15 | 0.89 | 0.05 | 90 | 1017.1 |
| 20260505072111 | 15 | 28 | 0.0 | 1.6 | 0.15 | 0.86 | 0.03 | 89 | 1017.1 |
| 20260505071605 | 15 | 28 | 0.0 | 0.0 | 0.18 | 0.86 | 0.03 | 90 | 1017.1 |
| 20260505071106 | 15 | 28 | 0.0 | 0.0 | 0.18 | 0.84 | 0.00 | 90 | 1017.1 |
| 20260505070606 | 14 | 28 | 0.0 | 1.6 | 0.20 | 0.84 | 0.00 | 89 | 1017.1 |
| 20260505070106 | 14 | 28 | 0.0 | 1.6 | 0.25 | 0.84 | 0.00 | 89 | 1017.0 |
| 20260505065108 | 14 | 28 | 0.0 | 1.6 | 0.28 | 0.81 | 0.81 | 88 | 1016.7 |
| 20260505064611 | 14 | 28 | 0.0 | 1.6 | 0.25 | 0.79 | 0.79 | 89 | 1017.0 |
| 20260505064111 | 14 | 28 | 1.6 | 1.6 | 0.28 | 0.79 | 0.79 | 89 | 1016.8 |
| 20260505063602 | 14 | 28 | 0.0 | 3.2 | 0.30 | 0.79 | 0.79 | 89 | 1016.7 |
| 20260505063102 | 14 | 28 | 1.6 | 3.2 | 0.30 | 0.76 | 0.76 | 89 | 1016.7 |
| 20260505062601 | 15 | 28 | 1.6 | 3.2 | 0.28 | 0.74 | 0.74 | 89 | 1016.7 |
| 20260505062103 | 15 | 28 | 1.6 | 4.8 | 0.28 | 0.71 | 0.71 | 89 | 1016.8 |
| 20260505061604 | 15 | 28 | 1.6 | 4.8 | 0.25 | 0.69 | 0.66 | 89 | 1017.0 |
| 20260505061100 | 15 | 28 | 0.0 | 3.2 | 0.25 | 0.66 | 0.66 | 88 | 1017.0 |
| 20260505060602 | 15 | 28 | 1.6 | 3.2 | 0.23 | 0.64 | 0.64 | 89 | 1017.0 |
| 20260505055602 | 15 | 9 | 1.6 | 3.2 | 0.15 | 0.56 | 0.56 | 88 | 1016.8 |
| 20260505055102 | 15 | 9 | 1.6 | 8.0 | 0.13 | 0.53 | 0.53 | 87 | 1016.8 |
| 20260505054557 | 15 | 9 | 1.6 | 8.0 | 0.13 | 0.51 | 0.51 | 88 | 1016.7 |
| 20260505054050 | 15 | 9 | 0.0 | 3.2 | 0.13 | 0.51 | 0.51 | 87 | 1016.6 |
| 20260505053043 | 15 | 9 | 0.0 | 0.0 | 0.08 | 0.46 | 0.46 | 84 | 1016.8 |
| 20260505052538 | 15 | 9 | 0.0 | 0.0 | 0.08 | 0.46 | 0.46 | 88 | 1016.7 |
| 20260505052040 | 15 | 9 | 0.0 | 0.0 | 0.05 | 0.43 | 0.43 | 88 | 1016.8 |
| 20260505051543 | 15 | 9 | 0.0 | 1.6 | 0.08 | 0.43 | 0.43 | 87 | 1016.8 |
| 20260505051040 | 15 | 9 | 0.0 | 1.6 | 0.05 | 0.41 | 0.41 | 86 | 1016.6 |
| 20260505041534 | 15 | 34 | 0.0 | 3.2 | 0.00 | 0.36 | 0.36 | 83 | 1017.0 |
| 20260505041034 | 15 | 34 | 0.0 | 1.6 | 0.00 | 0.36 | 0.36 | 83 | 1016.8 |
| 20260505040030 | 15 | 34 | 0.0 | 1.6 | 0.03 | 0.36 | 0.36 | 80 | 1017.0 |
| 20260505035028 | 15 | 34 | 0.0 | 4.8 | 0.05 | 0.36 | 0.36 | 83 | 1016.5 |
| 20260505034525 | 15 | 34 | 1.6 | 4.8 | 0.05 | 0.36 | 0.36 | 83 | 1016.5 |
| 20260505034028 | 14 | 34 | 1.6 | 8.0 | 0.08 | 0.36 | 0.36 | 83 | 1016.2 |
| 20260505033523 | 14 | 178 | 1.6 | 8.0 | 0.08 | 0.36 | 0.36 | 83 | 1016.2 |
| 20260505033024 | 14 | 161 | 1.6 | 8.0 | 0.10 | 0.36 | 0.36 | 82 | 1016.0 |
| 20260505032523 | 13 | 235 | 0.0 | 4.8 | 0.10 | 0.36 | 0.36 | 84 | 1015.8 |
| 20260505032024 | 13 | 166 | 1.6 | 4.8 | 0.13 | 0.36 | 0.36 | 83 | 1015.7 |
| 20260505031526 | 13 | 163 | 3.2 | 6.4 | 0.13 | 0.36 | 0.36 | 82 | 1015.9 |
| 20260505031026 | 13 | 48 | 1.6 | 6.4 | 0.15 | 0.36 | 0.36 | 82 | 1016.0 |
| 20260505030529 | 13 | 355 | 1.6 | 6.4 | 0.15 | 0.33 | 0.33 | 81 | 1016.4 |
| 20260505030022 | 13 | 345 | 1.6 | 4.8 | 0.18 | 0.33 | 0.33 | 82 | 1016.7 |
| 20260505025522 | 13 | 277 | 0.0 | 4.8 | 0.20 | 0.33 | 0.33 | 83 | 1016.8 |
| 20260505025025 | 13 | 82 | 0.0 | 6.4 | 0.20 | 0.30 | 0.30 | 83 | 1017.0 |